Location: Roland
(31.1349°N, 85.4372°W)
Time: 19:43:05
(UTC+00:00)

SR - Pass Details

Date: 16 April 2021
Orbit: 573 x 882 km, 66.7° (Epoch: 13 May)

Event Time Altitude Azimuth Distance (km) Brightness Sun altitude
Rises 14:45:12 0° 246° (WSW) 3,263 ? 44.3°
Reaches altitude 10° 14:48:17 10° 264° (W) 2,392 ? 44.9°
Maximum altitude 14:52:05 19° 308° (NW) 1,912 ? 45.7°
Drops below altitude 10° 14:56:04 10° 351° (N) 2,502 ? 46.5°
Sets 14:59:24 0° 9° (N) 3,468 ? 47.1°
